Location: Cactus School
(34.5700°N, 118.0931°W)
Time: 23:27:00
(UTC-07:00)

Transit 4A - Pass Details

Date: 14 April 2024
Orbit: 871 x 971 km, 66.8° (Epoch: 17 May)

Event Time Altitude Azimuth Distance (km) Brightness Sun altitude
Rises 23:04:56 0° 343° (NNW) 3,464 11.7 -38.7°
Reaches altitude 10° 23:07:43 10° 354° (N) 2,524 10.7 -39.0°
Enters shadow 23:09:50 20° 9° (N) 1,907 9.9 -39.3°
Maximum altitude 23:12:51 31° 56° (NE) 1,484 - -39.6°
Drops below altitude 10° 23:18:00 10° 117° (ESE) 2,542 - -40.2°
Sets 23:20:47 0° 128° (SE) 3,491 - -40.5°
